Weather in Kichi-Balyk

Russia / Karachay-Cherkess Republic     43°47′20″N   42°39′00″E
temp.,
°C
wind,
m/s
gust,
m/s
humid.,
%
clouds,
%
prec.,
mm/h
press.,
hPa
HPBL,
m
21 april, wed
wed2100:00+9ese2396100 0.0 1012203
03:00+7e349488 0.1 1013277
06:00+6ese349698 0.1 1014290
09:00+5e3492100 0.2 1017391
12:00+6e3393100 0.6 1017503
15:00+5e3396100 1.3 1019481
18:00+4e2398100 0.3 1020374
21:00+4e2299100 0.4 1021201
22 april, thu
thu2200:00+4e119799 0.0 1020173
03:00+4ese1198100 0.1 1020130
06:00+5ese2299100 0.4 1020155
09:00+5ne2298100 0.8 1020315
12:00+4e2298100 0.2 1021279
15:00+5e2197100 0.3 1021272
18:00+4e2299100 0.1 1021242
21:00+4ene1198100 0.1 1021162
23 april, fri
fri2300:00+3nnw1298100 4.6 1021406
03:00+3nw2398100 8.5 1022325
06:00+2w2399100 3.1 1023305
09:00+5wnw357244 4.4 1023965
12:00+8wnw126183 0.1 10211123
15:00+8nne326456 0.7 10211087
18:00+6ene227999 0.3 1021614
21:00+5se2280100 0.3 1020344
24 april, sat
sat2400:00+3ssw3271100 0.0 101934
03:00+4sw2156100 0.0 101813
06:00+4wsw1168100 0.3 101931
09:00+7ne215680 0.3 1018632
12:00+11ene345359 0.0 10161295
15:00+9ne2170100 0.8 1018720
18:00+7ene1284100 0.3 1019305
21:00+6ne2287100 0.4 1020248
25 april, sun
sun2500:00+5e2398100 0.1 1020202
03:00+5e2398100 0.1 1019285
06:00+4e2399100 0.0 1018304
09:00+5e2297100 0.1 1017435
12:00+5ne2296100 0.1 1016479
15:00+5ene2399100 0.5 1015333
18:00+4ene2399100 0.1 1015233
21:00+4ene2299100 0.1 1015171